This is the latest recevied weather packets stored in our database for station/object KC1OEK-13. If no packets are shown the sender has not sent any weather packets the latest 10 day(s).
| Time | Temp. | Humidity | Pressure | Rain* | Wind** | Luminosity | Snow |
|---|---|---|---|---|---|---|---|
| 1777686154 | 11.67° C | 64% | 1013.5 hPa | 0 mm | - | 0 W/m² | - |
| 1777685850 | 11.67° C | 64% | 1013.6 hPa | 0 mm | - | 0 W/m² | - |
| 1777685546 | 12.22° C | 63% | 1013.5 hPa | 0 mm | - | 0 W/m² | - |
| 1777685243 | 12.22° C | 63% | 1013.3 hPa | 0 mm | - | 0 W/m² | - |
| 1777684941 | 12.22° C | 61% | 1013.3 hPa | 0 mm | - | 0 W/m² | - |
| 1777684638 | 12.78° C | 61% | 1013.1 hPa | 0 mm | - | 0 W/m² | - |
| 1777684334 | 12.78° C | 59% | 1013.1 hPa | 0 mm | - | 0 W/m² | - |
| 1777684032 | 13.33° C | 58% | 1013.1 hPa | 0 mm | - | 0 W/m² | - |
| 1777683727 | 13.33° C | 57% | 1013 hPa | 0 mm | - | 0 W/m² | - |
| 1777683425 | 13.33° C | 57% | 1013 hPa | 0 mm | - | 0 W/m² | - |
| 1777683123 | 13.33° C | 57% | 1012.9 hPa | 0 mm | - | 0 W/m² | - |
| 1777682819 | 13.33° C | 57% | 1012.9 hPa | 0 mm | - | 0 W/m² | - |
| 1777682515 | 13.33° C | 56% | 1012.7 hPa | 0 mm | - | 0 W/m² | - |
| 1777682213 | 12.78° C | 57% | 1012.6 hPa | 0 mm | - | 0 W/m² | - |
| 1777681910 | 12.78° C | 59% | 1012.7 hPa | 0 mm | - | 0 W/m² | - |
| 1777681606 | 12.78° C | 59% | 1012.6 hPa | 0 mm | - | 0 W/m² | - |
| 1777681304 | 13.33° C | 58% | 1012.3 hPa | 0 mm | - | 0 W/m² | - |
| 1777681001 | 13.33° C | 57% | 1012.3 hPa | 0 mm | - | 0 W/m² | - |
| 1777680698 | 13.33° C | 55% | 1012.2 hPa | 0 mm | - | 0 W/m² | - |
| 1777680396 | 13.33° C | 54% | 1012.1 hPa | 0 mm | - | 0 W/m² | - |
| 1777680093 | 13.33° C | 54% | 1012.1 hPa | 0 mm | - | 0 W/m² | - |
| 1777679789 | 13.33° C | 54% | 1012.1 hPa | 0 mm | - | 0 W/m² | - |
| 1777679486 | 13.89° C | 51% | 1012.1 hPa | 0 mm | - | 1 W/m² | - |
| 1777679181 | 13.89° C | 48% | 1012 hPa | 0 mm | - | 1 W/m² | - |
| 1777678878 | 13.89° C | 47% | 1011.8 hPa | 0 mm | - | 2 W/m² | - |
* Rain latest hour (hover to see other rain measurements)
** Current wind speed in m/s (hover to see current wind gust speed)